Date String (YYYY-MM-DD hh:mm:ss) UTC,Instrument flags,absolute air pressure of the measurement (hPa),sample flow rate (lpm),inlet stack bypass flow (lpm),air temperature of the measurement (°C),ambient temperature measured by the external sensor (°C),aerosol sample conditioner tube jacket temperature (°C),OPC LED temperature (°C),internal box temperature (°C),relative humidity of the measurement (%),span deviation,mass concentration of particles derived from Lorenz-Mie calculation of OPC scattering (μg/m³),mass concentration of particles derived from Lorenz-Mie calculation of OPC scattering (μg/m³),mass concentration of particles derived from Lorenz-Mie calculation of OPC scattering (μg/m³)
DateTimeUTC,F1_M11,P_M11,Q1_M11,Q2_M11,T1_M11,T2_M11,T3_M11,T4_M11,T5_M11,U1_M11,ZSPAN_M11,X2_M11,X0_M11,X1_M11
2023-12-27 03:00:00,SystemResetWarning,0826.9,5.01,000.00,019.5,018.9,000.0,027.9,020.9,13.4,0000.0,0000.31,0000.55,0000.25
2023-12-27 03:01:00,SystemResetWarning,0826.9,5.00,000.00,019.5,018.9,000.0,027.9,020.9,13.4,0000.0,0000.30,0000.53,0000.25
2023-12-27 03:02:00,SystemResetWarning,0826.9,5.01,000.00,019.6,019.0,000.0,027.9,020.9,13.6,0000.0,0000.28,0000.51,0000.24
2023-12-27 03:03:00,SystemResetWarning,0827.0,5.01,000.00,019.6,019.0,000.0,027.9,020.9,13.6,0000.0,0000.26,0000.48,0000.23
2023-12-27 03:04:00,SystemResetWarning,0827.0,5.00,000.00,019.5,019.0,000.0,027.9,020.9,13.6,0000.0,0000.25,0000.44,0000.22
2023-12-27 03:05:00,SystemResetWarning,0827.0,4.99,000.00,019.6,019.0,000.0,027.9,020.9,13.4,0000.0,0000.23,0000.29,0000.21
2023-12-27 03:06:00,SystemResetWarning,0827.0,4.99,000.00,019.6,019.0,000.0,027.9,020.9,13.5,0000.0,0000.24,0000.30,0000.21
2023-12-27 03:07:00,SystemResetWarning,0827.0,4.99,000.00,019.6,019.0,000.0,027.9,020.9,13.5,0000.0,0000.25,0000.37,0000.21
2023-12-27 03:08:00,SystemResetWarning,0826.9,4.99,000.00,019.6,019.0,000.0,027.9,020.9,13.4,0000.0,0000.26,0000.44,0000.20
2023-12-27 03:09:00,SystemResetWarning,0827.0,5.01,000.00,019.6,019.0,000.0,027.9,020.9,13.2,0000.0,0000.26,0000.45,0000.20
2023-12-27 03:10:00,SystemResetWarning,0827.0,5.00,000.00,019.6,019.0,000.0,027.9,020.9,13.2,0000.0,0000.25,0000.44,0000.20
2023-12-27 03:11:00,SystemResetWarning,0827.0,5.01,000.00,019.6,019.0,000.0,027.9,020.9,13.3,0000.0,0000.25,0000.45,0000.19
2023-12-27 03:12:00,SystemResetWarning,0827.0,5.00,000.00,019.6,019.0,000.0,027.9,020.9,13.4,0000.0,0000.25,0000.46,0000.19
2023-12-27 03:13:00,SystemResetWarning,0827.0,5.00,000.00,019.6,019.0,000.0,027.9,021.0,13.4,0000.0,0000.26,0000.47,0000.19
2023-12-27 03:14:00,SystemResetWarning,0827.0,5.00,000.00,019.6,019.1,000.0,027.9,021.0,13.4,0000.0,0000.26,0000.48,0000.20
2023-12-27 03:15:00,SystemResetWarning,0827.0,5.00,000.00,019.6,019.1,000.0,027.9,021.0,13.5,0000.0,0000.27,0000.48,0000.20
2023-12-27 03:16:00,SystemResetWarning,0827.0,4.99,000.00,019.6,019.1,000.0,027.9,020.9,13.5,0000.0,0000.28,0000.50,0000.21
2023-12-27 03:17:00,SystemResetWarning,0827.0,5.00,000.00,019.6,019.1,000.0,027.9,021.0,13.4,0000.0,0000.30,0000.52,0000.24
2023-12-27 03:18:00,SystemResetWarning,0827.0,5.00,000.00,019.6,019.1,000.0,027.9,021.0,13.3,0000.0,0000.32,0000.52,0000.27
2023-12-27 03:19:00,SystemResetWarning,0827.0,5.00,000.00,019.6,019.1,000.0,027.9,021.0,13.2,0000.0,0000.33,0000.44,0000.29
2023-12-27 03:20:00,SystemResetWarning,0827.0,5.01,000.00,019.7,019.1,000.0,027.9,021.0,13.3,0000.0,0000.39,0000.53,0000.33
2023-12-27 03:21:00,SystemResetWarning,0827.1,5.01,000.00,019.7,019.1,000.0,028.0,021.0,13.4,0000.0,0000.44,0000.63,0000.36
2023-12-27 03:22:00,SystemResetWarning,0827.1,5.00,000.00,019.7,019.1,000.0,028.0,021.0,13.5,0000.0,0000.48,0000.71,0000.40
2023-12-27 03:23:00,SystemResetWarning,0827.1,5.00,000.00,019.7,019.1,000.0,028.0,021.0,13.7,0000.0,0000.53,0000.77,0000.43
2023-12-27 03:24:00,SystemResetWarning,0827.1,5.00,000.00,019.7,019.1,000.0,028.0,021.0,13.9,0000.0,0000.56,0000.85,0000.46
2023-12-27 03:25:00,SystemResetWarning,0827.1,4.99,000.00,019.7,019.1,000.0,028.0,021.0,14.3,0000.0,0000.61,0000.99,0000.50
2023-12-27 03:26:00,SystemResetWarning,0827.1,5.00,000.00,019.7,019.1,000.0,028.0,021.0,14.2,0000.0,0000.65,0001.05,0000.53
2023-12-27 03:27:00,SystemResetWarning,0827.1,5.00,000.00,019.7,019.1,000.0,028.0,021.0,14.3,0000.0,0000.67,0001.08,0000.55
2023-12-27 03:28:00,SystemResetWarning,0827.1,5.01,000.00,019.7,019.1,000.0,028.0,021.0,14.2,0000.0,0000.68,0001.09,0000.56
2023-12-27 03:29:00,SystemResetWarning,0827.1,5.00,000.00,019.7,019.1,000.0,028.0,021.1,14.0,0000.0,0000.67,0001.08,0000.55
2023-12-27 03:30:00,SystemResetWarning,0827.1,5.00,000.00,019.7,019.1,000.0,028.0,021.0,13.9,0000.0,0000.67,0001.08,0000.55
2023-12-27 03:31:00,SystemResetWarning,0827.1,5.00,000.00,019.7,019.1,000.0,028.0,021.0,13.9,0000.0,0000.64,0001.03,0000.53
2023-12-27 03:32:00,SystemResetWarning,0827.1,5.00,000.00,019.7,019.1,000.0,028.0,021.0,13.8,0000.0,0000.61,0001.05,0000.52
2023-12-27 03:33:00,SystemResetWarning,0827.2,5.00,000.00,019.7,019.1,000.0,028.0,021.0,13.9,0000.0,0000.58,0000.97,0000.50
2023-12-27 03:34:00,SystemResetWarning,0827.1,5.00,000.00,019.7,019.1,000.0,028.0,021.0,13.8,0000.0,0000.58,0000.98,0000.50
2023-12-27 03:35:00,SystemResetWarning,0827.1,5.00,000.00,019.7,019.1,000.0,028.0,021.1,13.8,0000.0,0000.60,0001.00,0000.51
2023-12-27 03:36:00,SystemResetWarning,0827.1,5.00,000.00,019.7,019.1,000.0,028.0,021.1,13.7,0000.0,0000.60,0001.23,0000.51
2023-12-27 03:37:00,SystemResetWarning,0827.1,5.01,000.00,019.7,019.1,000.0,028.0,021.1,13.8,0000.0,0000.63,0001.39,0000.52
2023-12-27 03:38:00,SystemResetWarning,0827.2,5.00,000.00,019.8,019.1,000.0,028.0,021.1,13.6,0000.0,0000.66,0001.44,0000.55
2023-12-27 03:39:00,SystemResetWarning,0827.2,5.00,000.00,019.8,019.1,000.0,028.0,021.1,13.9,0000.0,0000.74,0001.55,0000.59
2023-12-27 03:40:00,SystemResetWarning,0827.1,5.00,000.00,019.8,019.1,000.0,028.0,021.1,13.7,0000.0,0000.81,0001.67,0000.65
2023-12-27 03:41:00,SystemResetWarning,0827.2,5.00,000.00,019.8,019.1,000.0,028.0,021.1,13.9,0000.0,0000.86,0001.73,0000.69
2023-12-27 03:42:00,SystemResetWarning,0827.2,5.01,000.00,019.8,019.1,000.0,028.0,021.1,13.9,0000.0,0000.88,0001.75,0000.72
2023-12-27 03:43:00,SystemResetWarning,0827.2,5.00,000.00,019.8,019.1,000.0,028.0,021.1,13.9,0000.0,0000.92,0001.75,0000.73
2023-12-27 03:44:00,SystemResetWarning,0827.2,5.00,000.00,019.8,019.1,000.0,028.1,021.1,13.8,0000.0,0000.96,0001.83,0000.76
2023-12-27 03:45:00,SystemResetWarning,0827.2,5.00,000.00,019.8,019.1,000.0,028.1,021.1,13.6,0000.0,0001.02,0001.94,0000.77
2023-12-27 03:46:00,SystemResetWarning,0827.2,5.00,000.00,019.8,019.1,000.0,028.1,021.0,13.7,0000.0,0001.06,0002.04,0000.77
2023-12-27 03:47:00,SystemResetWarning,0827.2,5.00,000.00,019.8,019.1,000.0,028.1,021.0,13.7,0000.0,0001.06,0001.79,0000.76
2023-12-27 03:48:00,SystemResetWarning,0827.2,5.00,000.00,019.8,019.1,000.0,028.1,021.1,13.6,0000.0,0001.13,0001.77,0000.80
2023-12-27 03:49:00,SystemResetWarning,0827.1,5.00,000.00,019.8,019.1,000.0,028.1,021.0,13.5,0000.0,0001.22,0001.92,0000.85
2023-12-27 03:50:00,SystemResetWarning,0827.2,5.00,000.00,019.8,019.1,000.0,028.1,021.0,13.6,0000.0,0001.29,0002.12,0000.89
2023-12-27 03:51:00,SystemResetWarning,0827.1,5.00,000.00,019.8,019.1,000.0,028.1,021.0,13.6,0000.0,0001.35,0002.22,0000.94
2023-12-27 03:52:00,SystemResetWarning,0827.2,5.00,000.00,019.8,019.2,000.0,028.1,021.0,13.6,0000.0,0001.42,0002.32,0000.99
2023-12-27 03:53:00,SystemResetWarning,0827.2,5.00,000.00,019.8,019.1,000.0,028.1,021.0,13.5,0000.0,0001.52,0002.47,0001.06
2023-12-27 03:54:00,SystemResetWarning,0827.2,5.00,000.00,019.8,019.2,000.0,028.1,021.0,13.4,0000.0,0001.66,0002.73,0001.15
2023-12-27 03:55:00,SystemResetWarning,0827.3,5.00,000.00,019.8,019.2,000.0,028.1,021.0,13.5,0000.0,0001.77,0002.89,0001.23
2023-12-27 03:56:00,SystemResetWarning,0827.2,5.00,000.00,019.8,019.2,000.0,028.1,021.1,13.5,0000.0,0001.82,0003.01,0001.30
2023-12-27 03:57:00,SystemResetWarning,0827.2,5.00,000.00,019.8,019.2,000.0,028.1,021.0,13.5,0000.0,0001.84,0002.96,0001.37
2023-12-27 03:58:00,SystemResetWarning,0827.3,5.00,000.00,019.8,019.2,000.0,028.1,021.1,13.5,0000.0,0001.98,0003.26,0001.49
2023-12-27 03:59:00,SystemResetWarning,0827.3,5.00,000.00,019.8,019.2,000.0,028.1,021.1,13.4,0000.0,0002.07,0003.50,0001.56
